| time (UTC) | temp F | wind direction | speed knots | gust knots | rain 1hr in | rain 24hr in | rain mn in | humidity % | barometer mb |
| 20260510190126 | 84 | 144 | 0.0 | 0.9 | 0.00 | 0.00 | 0.00 | 36 | 1013.9 |
| 20260510185622 | 85 | 200 | 1.7 | 2.6 | 0.00 | 0.00 | 0.00 | 33 | 1013.8 |
| 20260510185121 | 84 | 356 | 1.7 | 3.5 | 0.00 | 0.00 | 0.00 | 35 | 1013.9 |
| 20260510184617 | 84 | 126 | 1.7 | 1.7 | 0.00 | 0.00 | 0.00 | 36 | 1014.0 |
| 20260510184113 | 84 | 149 | 0.0 | 0.9 | 0.00 | 0.00 | 0.00 | 42 | 1014.2 |
| 20260510183608 | 84 | 179 | 0.0 | 0.9 | 0.00 | 0.00 | 0.00 | 38 | 1014.0 |
| 20260510183104 | 84 | 148 | 0.0 | 0.9 | 0.00 | 0.00 | 0.00 | 40 | 1014.3 |
| 20260510182601 | 85 | 121 | 0.0 | 2.6 | 0.00 | 0.00 | 0.00 | 41 | 1014.2 |
| 20260510182056 | 85 | 155 | 0.0 | 0.9 | 0.00 | 0.00 | 0.00 | 39 | 1014.1 |
| 20260510181554 | 84 | 127 | 0.9 | 0.9 | 0.00 | 0.00 | 0.00 | 42 | 1014.1 |
| 20260510181050 | 82 | 3 | 1.7 | 5.2 | 0.00 | 0.00 | 0.00 | 37 | 1014.0 |
| 20260510180546 | 81 | 293 | 1.7 | 1.7 | 0.00 | 0.00 | 0.00 | 38 | 1014.3 |
| 20260510180045 | 82 | 180 | 0.9 | 1.7 | 0.00 | 0.00 | 0.00 | 37 | 1014.5 |
| 20260510175544 | 82 | 142 | 0.0 | 0.9 | 0.00 | 0.00 | 0.00 | 40 | 1014.5 |
| 20260510175041 | 84 | 144 | 0.0 | 0.9 | 0.00 | 0.00 | 0.00 | 39 | 1014.4 |
| 20260510174540 | 84 | 46 | 1.7 | 1.7 | 0.00 | 0.00 | 0.00 | 35 | 1014.4 |
| 20260510174036 | 83 | 176 | 0.0 | 3.5 | 0.00 | 0.00 | 0.00 | 40 | 1014.2 |
| 20260510173531 | 84 | 140 | 0.9 | 1.7 | 0.00 | 0.00 | 0.00 | 36 | 1014.2 |
| 20260510173028 | 83 | 136 | 1.7 | 1.7 | 0.00 | 0.00 | 0.00 | 38 | 1014.6 |
| 20260510172524 | 83 | 131 | 0.9 | 0.9 | 0.00 | 0.00 | 0.00 | 41 | 1014.6 |
| 20260510172021 | 82 | 170 | 0.9 | 0.9 | 0.00 | 0.00 | 0.00 | 37 | 1014.6 |
| 20260510171517 | 83 | 91 | 0.9 | 1.7 | 0.00 | 0.00 | 0.00 | 38 | 1014.6 |
| 20260510171014 | 82 | 208 | 0.9 | 0.9 | 0.00 | 0.00 | 0.00 | 33 | 1014.5 |
| 20260510170511 | 82 | 146 | 0.0 | 0.9 | 0.00 | 0.00 | 0.00 | 39 | 1014.4 |
| 20260510170008 | 82 | 157 | 0.9 | 3.5 | 0.00 | 0.00 | 0.00 | 36 | 1014.5 |
| 20260510165503 | 82 | 133 | 0.0 | 0.0 | 0.00 | 0.00 | 0.00 | 40 | 1014.3 |
| 20260510165000 | 81 | 145 | 0.9 | 1.7 | 0.00 | 0.00 | 0.00 | 43 | 1014.4 |
| 20260510164457 | 81 | 164 | 0.0 | 0.9 | 0.00 | 0.00 | 0.00 | 44 | 1014.7 |
| 20260510163952 | 81 | 116 | 1.7 | 1.7 | 0.00 | 0.00 | 0.00 | 39 | 1014.4 |
| 20260510163448 | 81 | 123 | 2.6 | 2.6 | 0.00 | 0.00 | 0.00 | 40 | 1014.7 |
| 20260510162943 | 82 | 139 | 0.0 | 0.9 | 0.00 | 0.00 | 0.00 | 41 | 1014.7 |
| 20260510162440 | 81 | 119 | 0.9 | 1.7 | 0.00 | 0.00 | 0.00 | 39 | 1014.6 |
| 20260510161937 | 81 | 260 | 1.7 | 2.6 | 0.00 | 0.00 | 0.00 | 40 | 1014.8 |
| 20260510161432 | 81 | 224 | 0.9 | 1.7 | 0.00 | 0.00 | 0.00 | 39 | 1014.8 |
| 20260510160930 | 81 | 203 | 1.7 | 1.7 | 0.00 | 0.00 | 0.00 | 41 | 1014.8 |
| 20260510160427 | 82 | 4 | 2.6 | 2.6 | 0.00 | 0.00 | 0.00 | 42 | 1014.8 |
| 20260510155925 | 81 | 135 | 0.9 | 1.7 | 0.00 | 0.00 | 0.00 | 46 | 1014.9 |
| 20260510155423 | 81 | 187 | 0.9 | 0.9 | 0.00 | 0.00 | 0.00 | 40 | 1015.2 |
| 20260510154919 | 80 | 148 | 0.0 | 2.6 | 0.00 | 0.00 | 0.00 | 44 | 1015.0 |
| 20260510154415 | 80 | 253 | 1.7 | 2.6 | 0.00 | 0.00 | 0.00 | 42 | 1015.2 |
| 20260510153914 | 80 | 128 | 0.9 | 1.7 | 0.00 | 0.00 | 0.00 | 43 | 1015.4 |
| 20260510153411 | 80 | 107 | 1.7 | 1.7 | 0.00 | 0.00 | 0.00 | 43 | 1015.1 |
| 20260510152907 | 80 | 153 | 0.9 | 2.6 | 0.00 | 0.00 | 0.00 | 42 | 1015.2 |
| 20260510152405 | 80 | 318 | 2.6 | 2.6 | 0.00 | 0.00 | 0.00 | 43 | 1015.2 |
| 20260510151901 | 79 | 171 | 0.9 | 0.9 | 0.00 | 0.00 | 0.00 | 46 | 1015.0 |
| 20260510151359 | 78 | 127 | 1.7 | 2.6 | 0.00 | 0.00 | 0.00 | 46 | 1015.1 |
| 20260510150855 | 79 | 152 | 1.7 | 2.6 | 0.00 | 0.00 | 0.00 | 47 | 1015.1 |
| 20260510150350 | 78 | 131 | 0.0 | 0.9 | 0.00 | 0.00 | 0.00 | 51 | 1015.0 |
| 20260510145847 | 78 | 335 | 1.7 | 1.7 | 0.00 | 0.00 | 0.00 | 48 | 1014.9 |
| 20260510145343 | 78 | 59 | 0.9 | 1.7 | 0.00 | 0.00 | 0.00 | 47 | 1015.2 |
| 20260510144840 | 78 | 168 | 0.9 | 2.6 | 0.00 | 0.00 | 0.00 | 50 | 1015.0 |
| 20260510144337 | 78 | 166 | 0.9 | 2.6 | 0.00 | 0.00 | 0.00 | 47 | 1015.1 |
| 20260510143836 | 78 | 168 | 0.9 | 1.7 | 0.00 | 0.00 | 0.00 | 48 | 1015.1 |
| 20260510143333 | 78 | 160 | 0.9 | 1.7 | 0.00 | 0.00 | 0.00 | 51 | 1015.0 |
| 20260510142831 | 78 | 132 | 0.9 | 0.9 | 0.00 | 0.00 | 0.00 | 49 | 1015.2 |
| 20260510142327 | 78 | 136 | 0.0 | 1.7 | 0.00 | 0.00 | 0.00 | 53 | 1014.9 |
| 20260510141824 | 76 | 134 | 0.0 | 0.9 | 0.00 | 0.00 | 0.00 | 54 | 1015.0 |
| 20260510141321 | 75 | 279 | 0.9 | 0.9 | 0.00 | 0.00 | 0.00 | 57 | 1015.1 |
| 20260510140819 | 76 | 189 | 1.7 | 1.7 | 0.00 | 0.00 | 0.00 | 58 | 1015.0 |
| 20260510140314 | 75 | 249 | 0.9 | 1.7 | 0.00 | 0.00 | 0.00 | 59 | 1015.1 |
| 20260510135813 | 74 | 177 | 0.9 | 0.9 | 0.00 | 0.00 | 0.00 | 59 | 1015.1 |
| 20260510135309 | 74 | 217 | 1.7 | 1.7 | 0.00 | 0.00 | 0.00 | 62 | 1015.1 |
| 20260510134807 | 73 | 100 | 0.9 | 1.7 | 0.00 | 0.00 | 0.00 | 62 | 1015.0 |
| 20260510134304 | 73 | 297 | 1.7 | 1.7 | 0.00 | 0.00 | 0.00 | 64 | 1015.2 |
| 20260510133759 | 73 | 263 | 0.9 | 2.6 | 0.00 | 0.00 | 0.00 | 64 | 1015.2 |
| 20260510133256 | 73 | 114 | 0.0 | 1.7 | 0.00 | 0.00 | 0.00 | 65 | 1015.0 |
| 20260510132751 | 72 | 96 | 0.9 | 1.7 | 0.00 | 0.00 | 0.00 | 69 | 1014.8 |
| 20260510132250 | 72 | 179 | 1.7 | 0.9 | 0.00 | 0.00 | 0.00 | 70 | 1015.0 |
| 20260510131746 | 72 | 134 | 0.0 | 0.9 | 0.00 | 0.00 | 0.00 | 69 | 1014.8 |
| 20260510131245 | 71 | 110 | 0.9 | 1.7 | 0.00 | 0.00 | 0.00 | 71 | 1014.7 |
| 20260510130740 | 71 | 145 | 0.0 | 0.9 | 0.00 | 0.00 | 0.00 | 74 | 1014.7 |
| 20260510130238 | 71 | 134 | 0.0 | 0.0 | 0.00 | 0.00 | 0.00 | 74 | 1014.5 |
| 20260510125734 | 71 | 171 | 0.0 | 0.9 | 0.00 | 0.00 | 0.00 | 73 | 1014.6 |
| 20260510125230 | 69 | 169 | 0.0 | 0.9 | 0.00 | 0.00 | 0.00 | 77 | 1014.5 |
| 20260510124727 | 69 | 174 | 0.0 | 0.9 | 0.00 | 0.00 | 0.00 | 78 | 1014.5 |
| 20260510124225 | 69 | 174 | 0.9 | 0.9 | 0.00 | 0.00 | 0.00 | 77 | 1014.6 |
| 20260510123719 | 68 | 143 | 0.9 | 0.9 | 0.00 | 0.00 | 0.00 | 80 | 1014.7 |
| 20260510123215 | 68 | 142 | 0.0 | 0.0 | 0.00 | 0.00 | 0.00 | 81 | 1014.4 |
| 20260510122712 | 68 | 142 | 0.0 | 0.9 | 0.00 | 0.00 | 0.00 | 83 | 1014.4 |
| 20260510122209 | 68 | 141 | 0.0 | 0.9 | 0.00 | 0.00 | 0.00 | 82 | 1014.4 |
| 20260510121705 | 67 | 143 | 0.0 | 0.9 | 0.00 | 0.00 | 0.00 | 84 | 1014.4 |
| 20260510121202 | 66 | 143 | 0.0 | 0.0 | 0.00 | 0.00 | 0.00 | 87 | 1014.4 |
| 20260510120654 | 65 | 140 | 0.9 | 0.9 | 0.00 | 0.00 | 0.00 | 87 | 1014.3 |
| 20260510120150 | 64 | 141 | 0.0 | 0.9 | 0.00 | 0.00 | 0.00 | 90 | 1014.3 |
| 20260510115646 | 63 | 140 | 0.0 | 0.0 | 0.00 | 0.00 | 0.00 | 91 | 1014.3 |
| 20260510115144 | 62 | 140 | 0.0 | 0.0 | 0.00 | 0.00 | 0.00 | 94 | 1014.4 |
| 20260510114639 | 61 | 140 | 0.0 | 0.0 | 0.00 | 0.00 | 0.00 | 96 | 1014.2 |
| 20260510114136 | 60 | 140 | 0.0 | 0.0 | 0.00 | 0.00 | 0.00 | 97 | 1014.2 |
| 20260510113631 | 60 | 140 | 0.0 | 0.0 | 0.00 | 0.00 | 0.00 | 97 | 1014.0 |
| 20260510113128 | 60 | 140 | 0.0 | 0.0 | 0.00 | 0.00 | 0.00 | 97 | 1013.9 |
| 20260510112625 | 59 | 139 | 0.0 | 0.0 | 0.00 | 0.00 | 0.00 | 97 | 1014.0 |
| 20260510112122 | 59 | 139 | 0.0 | 0.0 | 0.00 | 0.00 | 0.00 | 97 | 1013.7 |
| 20260510111618 | 59 | 139 | 0.0 | 0.0 | 0.00 | 0.00 | 0.00 | 97 | 1013.6 |
| 20260510111114 | 59 | 139 | 0.0 | 0.0 | 0.00 | 0.00 | 0.00 | 97 | 1013.7 |
| 20260510110610 | 59 | 139 | 0.0 | 0.0 | 0.00 | 0.00 | 0.00 | 97 | 1013.7 |
| 20260510110107 | 58 | 139 | 0.0 | 0.0 | 0.00 | 0.00 | 0.00 | 97 | 1013.5 |
| 20260510105603 | 58 | 139 | 0.0 | 0.0 | 0.00 | 0.00 | 0.00 | 97 | 1013.5 |
| 20260510105057 | 58 | 139 | 0.0 | 0.0 | 0.00 | 0.00 | 0.00 | 97 | 1013.3 |
| 20260510104554 | 58 | 139 | 0.0 | 0.0 | 0.00 | 0.00 | 0.00 | 97 | 1013.5 |
| 20260510104050 | 58 | 139 | 0.0 | 0.0 | 0.00 | 0.00 | 0.00 | 97 | 1013.4 |
| 20260510103548 | 58 | 139 | 0.0 | 0.0 | 0.00 | 0.00 | 0.00 | 97 | 1013.0 |
| 20260510103044 | 58 | 139 | 0.0 | 0.0 | 0.00 | 0.00 | 0.00 | 97 | 1013.3 |
| 20260510102539 | 58 | 139 | 0.0 | 0.0 | 0.00 | 0.00 | 0.00 | 97 | 1013.1 |
| 20260510102035 | 58 | 139 | 0.0 | 0.0 | 0.00 | 0.00 | 0.00 | 97 | 1013.0 |
| 20260510101533 | 58 | 139 | 0.0 | 0.0 | 0.00 | 0.00 | 0.00 | 97 | 1012.8 |
| 20260510101032 | 58 | 139 | 0.0 | 0.0 | 0.00 | 0.00 | 0.00 | 97 | 1012.8 |
| 20260510100528 | 58 | 139 | 0.0 | 0.0 | 0.00 | 0.00 | 0.00 | 97 | 1013.0 |
| 20260510100025 | 58 | 139 | 0.0 | 0.0 | 0.00 | 0.00 | 0.00 | 97 | 1012.5 |
| 20260510095521 | 58 | 139 | 0.0 | 0.0 | 0.00 | 0.00 | 0.00 | 97 | 1012.6 |
| 20260510095019 | 58 | 139 | 0.0 | 0.0 | 0.00 | 0.00 | 0.00 | 97 | 1012.7 |
| 20260510094515 | 58 | 139 | 0.0 | 0.0 | 0.00 | 0.00 | 0.00 | 97 | 1012.6 |
| 20260510094010 | 58 | 139 | 0.0 | 0.0 | 0.00 | 0.00 | 0.00 | 97 | 1012.3 |
| 20260510093507 | 58 | 139 | 0.0 | 0.0 | 0.00 | 0.00 | 0.00 | 97 | 1012.3 |
| 20260510093003 | 58 | 139 | 0.0 | 0.0 | 0.00 | 0.00 | 0.00 | 97 | 1012.0 |
| 20260510092500 | 58 | 139 | 0.0 | 0.0 | 0.00 | 0.00 | 0.00 | 97 | 1012.1 |
| 20260510092000 | 58 | 139 | 0.0 | 0.0 | 0.00 | 0.00 | 0.00 | 97 | 1012.2 |
| 20260510091457 | 58 | 139 | 0.0 | 0.0 | 0.00 | 0.00 | 0.00 | 97 | 1012.0 |
| 20260510090953 | 58 | 139 | 0.0 | 0.0 | 0.00 | 0.00 | 0.00 | 97 | 1011.9 |
| 20260510090450 | 58 | 139 | 0.0 | 0.0 | 0.00 | 0.00 | 0.00 | 97 | 1012.0 |
| 20260510085945 | 58 | 139 | 0.0 | 0.0 | 0.00 | 0.00 | 0.00 | 97 | 1012.0 |
| 20260510085441 | 58 | 139 | 0.0 | 0.0 | 0.00 | 0.00 | 0.00 | 97 | 1012.0 |
| 20260510084936 | 58 | 139 | 0.0 | 0.0 | 0.00 | 0.00 | 0.00 | 97 | 1011.9 |
| 20260510084434 | 58 | 139 | 0.0 | 0.0 | 0.00 | 0.00 | 0.00 | 97 | 1011.9 |
| 20260510083930 | 58 | 139 | 0.0 | 0.0 | 0.00 | 0.00 | 0.00 | 97 | 1012.0 |
| 20260510083427 | 58 | 139 | 0.0 | 0.0 | 0.00 | 0.00 | 0.00 | 97 | 1011.8 |
| 20260510082922 | 58 | 139 | 0.0 | 0.0 | 0.00 | 0.00 | 0.00 | 97 | 1011.8 |
| 20260510082421 | 58 | 139 | 0.0 | 0.0 | 0.00 | 0.00 | 0.00 | 97 | 1011.8 |
| 20260510081919 | 58 | 139 | 0.0 | 0.0 | 0.00 | 0.00 | 0.00 | 97 | 1011.8 |
| 20260510081415 | 58 | 139 | 0.0 | 0.0 | 0.00 | 0.00 | 0.00 | 97 | 1011.7 |
| 20260510080912 | 58 | 139 | 0.0 | 0.0 | 0.00 | 0.00 | 0.00 | 97 | 1011.8 |
| 20260510080411 | 58 | 139 | 0.0 | 0.0 | 0.00 | 0.00 | 0.00 | 97 | 1012.0 |
| 20260510075908 | 58 | 139 | 0.0 | 0.0 | 0.00 | 0.00 | 0.00 | 97 | 1011.7 |
| 20260510075406 | 58 | 139 | 0.0 | 0.0 | 0.00 | 0.00 | 0.00 | 97 | 1011.6 |
| 20260510074902 | 58 | 139 | 0.0 | 0.0 | 0.00 | 0.00 | 0.00 | 97 | 1011.8 |
| 20260510074359 | 58 | 139 | 0.0 | 0.0 | 0.00 | 0.00 | 0.00 | 96 | 1011.8 |
| 20260510073856 | 59 | 139 | 0.0 | 0.0 | 0.00 | 0.00 | 0.00 | 96 | 1011.6 |
| 20260510073351 | 59 | 139 | 0.0 | 0.0 | 0.00 | 0.00 | 0.00 | 96 | 1011.7 |
| 20260510072847 | 59 | 139 | 0.0 | 0.0 | 0.00 | 0.00 | 0.00 | 97 | 1011.6 |
| 20260510072345 | 58 | 139 | 0.0 | 0.0 | 0.00 | 0.00 | 0.00 | 96 | 1011.3 |
| 20260510071840 | 58 | 139 | 0.0 | 0.0 | 0.00 | 0.00 | 0.00 | 96 | 1011.5 |
| 20260510071337 | 58 | 139 | 0.0 | 0.0 | 0.00 | 0.00 | 0.00 | 96 | 1011.5 |
| 20260510070836 | 58 | 139 | 0.0 | 0.0 | 0.00 | 0.00 | 0.00 | 96 | 1011.3 |
| 20260510070332 | 58 | 139 | 0.0 | 0.0 | 0.00 | 0.00 | 0.00 | 96 | 1011.9 |
| 20260510065827 | 58 | 139 | 0.0 | 0.0 | 0.00 | 0.00 | 0.00 | 96 | 1011.6 |
| 20260510065324 | 59 | 139 | 0.0 | 0.0 | 0.00 | 0.00 | 0.00 | 96 | 1011.5 |
| 20260510064821 | 59 | 139 | 0.0 | 0.0 | 0.00 | 0.00 | 0.00 | 96 | 1011.7 |
| 20260510064319 | 59 | 139 | 0.0 | 0.0 | 0.00 | 0.00 | 0.00 | 96 | 1011.5 |
| 20260510063814 | 59 | 139 | 0.0 | 0.0 | 0.00 | 0.00 | 0.00 | 96 | 1011.6 |
| 20260510063311 | 59 | 139 | 0.0 | 0.0 | 0.00 | 0.00 | 0.00 | 96 | 1011.8 |
| 20260510062808 | 59 | 139 | 0.0 | 0.0 | 0.00 | 0.00 | 0.00 | 96 | 1011.5 |
| 20260510062306 | 59 | 139 | 0.0 | 0.0 | 0.00 | 0.00 | 0.00 | 96 | 1011.3 |
| 20260510061759 | 59 | 139 | 0.0 | 0.0 | 0.00 | 0.00 | 0.00 | 96 | 1011.3 |
| 20260510061256 | 59 | 139 | 0.0 | 0.0 | 0.00 | 0.00 | 0.00 | 96 | 1011.3 |
| 20260510060752 | 59 | 139 | 0.0 | 0.0 | 0.00 | 0.00 | 0.00 | 96 | 1011.8 |
| 20260510060249 | 59 | 139 | 0.0 | 0.0 | 0.00 | 0.00 | 0.00 | 96 | 1011.6 |
| 20260510055746 | 59 | 139 | 0.0 | 0.0 | 0.00 | 0.00 | 0.00 | 96 | 1011.6 |
| 20260510055244 | 59 | 139 | 0.0 | 0.0 | 0.00 | 0.00 | 0.00 | 96 | 1011.6 |
| 20260510054744 | 59 | 139 | 0.0 | 0.0 | 0.00 | 0.00 | 0.00 | 96 | 1011.7 |
| 20260510054240 | 59 | 139 | 0.0 | 0.0 | 0.00 | 0.00 | 0.00 | 96 | 1011.6 |
| 20260510053739 | 59 | 139 | 0.0 | 0.0 | 0.00 | 0.00 | 0.00 | 96 | 1012.0 |
| 20260510053236 | 59 | 139 | 0.0 | 0.0 | 0.00 | 0.00 | 0.00 | 96 | 1011.8 |
| 20260510052732 | 59 | 139 | 0.0 | 0.0 | 0.00 | 0.00 | 0.00 | 96 | 1011.8 |
| 20260510052228 | 59 | 139 | 0.0 | 0.0 | 0.00 | 0.00 | 0.00 | 96 | 1012.0 |
| 20260510051724 | 59 | 139 | 0.0 | 0.0 | 0.00 | 0.00 | 0.00 | 96 | 1012.3 |
| 20260510051221 | 59 | 139 | 0.0 | 0.0 | 0.00 | 0.00 | 0.00 | 96 | 1012.0 |
| 20260510050718 | 59 | 139 | 0.0 | 0.0 | 0.00 | 0.00 | 0.00 | 96 | 1012.1 |
| 20260510050215 | 59 | 139 | 0.0 | 0.0 | 0.00 | 0.00 | 0.00 | 96 | 1012.1 |
| 20260510045712 | 59 | 139 | 0.0 | 0.0 | 0.00 | 0.00 | 0.00 | 96 | 1012.2 |
| 20260510045208 | 59 | 139 | 0.0 | 0.0 | 0.00 | 0.00 | 0.00 | 96 | 1012.3 |
| 20260510044704 | 59 | 139 | 0.0 | 0.0 | 0.00 | 0.00 | 0.00 | 96 | 1012.0 |
| 20260510044203 | 60 | 139 | 0.0 | 0.0 | 0.00 | 0.00 | 0.00 | 96 | 1012.2 |
| 20260510043658 | 60 | 139 | 0.0 | 0.0 | 0.00 | 0.00 | 0.00 | 96 | 1012.1 |
| 20260510043155 | 59 | 139 | 0.0 | 0.0 | 0.00 | 0.00 | 0.00 | 96 | 1012.2 |
| 20260510042652 | 59 | 139 | 0.0 | 0.0 | 0.00 | 0.00 | 0.00 | 95 | 1012.1 |
| 20260510042148 | 59 | 139 | 0.0 | 0.0 | 0.00 | 0.00 | 0.00 | 95 | 1012.0 |
| 20260510041645 | 60 | 139 | 0.0 | 0.0 | 0.00 | 0.00 | 0.00 | 95 | 1011.0 |
| 20260510041142 | 60 | 139 | 0.0 | 0.0 | 0.00 | 0.00 | 0.00 | 95 | 1010.8 |
| 20260510040639 | 60 | 139 | 0.0 | 0.0 | 0.00 | 0.00 | 0.00 | 95 | 1010.8 |
| 20260510040136 | 60 | 139 | 0.0 | 0.0 | 0.00 | 0.00 | 0.00 | 95 | 1010.9 |
| 20260510035632 | 60 | 139 | 0.0 | 0.0 | 0.00 | 0.00 | 0.00 | 95 | 1010.7 |
| 20260510035127 | 60 | 139 | 0.0 | 0.0 | 0.00 | 0.00 | 0.00 | 95 | 1010.8 |
| 20260510034624 | 60 | 139 | 0.0 | 0.0 | 0.00 | 0.00 | 0.00 | 95 | 1010.9 |
| 20260510034121 | 60 | 139 | 0.0 | 0.0 | 0.00 | 0.00 | 0.00 | 95 | 1010.7 |
| 20260510033617 | 60 | 139 | 0.0 | 0.0 | 0.00 | 0.00 | 0.00 | 95 | 1010.8 |
| 20260510033115 | 60 | 139 | 0.0 | 0.0 | 0.00 | 0.00 | 0.00 | 95 | 1010.7 |
| 20260510032611 | 60 | 139 | 0.0 | 0.0 | 0.00 | 0.00 | 0.00 | 95 | 1010.7 |
| 20260510032107 | 60 | 139 | 0.0 | 0.0 | 0.00 | 0.00 | 0.00 | 95 | 1010.6 |
| 20260510031602 | 60 | 139 | 0.0 | 0.0 | 0.00 | 0.00 | 0.00 | 95 | 1010.6 |
| 20260510031058 | 60 | 139 | 0.0 | 0.0 | 0.00 | 0.00 | 0.00 | 95 | 1010.5 |
| 20260510030553 | 60 | 139 | 0.0 | 0.0 | 0.00 | 0.00 | 0.00 | 94 | 1010.6 |
| 20260510030051 | 60 | 139 | 0.0 | 0.0 | 0.00 | 0.00 | 0.00 | 94 | 1010.5 |
| 20260510025548 | 61 | 139 | 0.0 | 0.0 | 0.00 | 0.00 | 0.00 | 94 | 1010.3 |
| 20260510025046 | 61 | 139 | 0.0 | 0.0 | 0.00 | 0.00 | 0.00 | 94 | 1010.4 |
| 20260510024542 | 61 | 139 | 0.0 | 0.0 | 0.00 | 0.00 | 0.00 | 94 | 1010.3 |
| 20260510024038 | 61 | 139 | 0.0 | 0.0 | 0.00 | 0.00 | 0.00 | 94 | 1010.4 |
| 20260510023535 | 61 | 139 | 0.0 | 0.0 | 0.00 | 0.00 | 0.00 | 94 | 1010.6 |
| 20260510023033 | 61 | 139 | 0.0 | 0.0 | 0.00 | 0.00 | 0.00 | 94 | 1010.3 |
| 20260510022532 | 61 | 139 | 0.0 | 0.0 | 0.00 | 0.00 | 0.00 | 94 | 1010.6 |
| 20260510022032 | 61 | 139 | 0.0 | 0.0 | 0.00 | 0.00 | 0.00 | 94 | 1010.2 |
| 20260510021528 | 61 | 139 | 0.0 | 0.0 | 0.00 | 0.00 | 0.00 | 94 | 1010.2 |
| 20260510021026 | 61 | 139 | 0.0 | 0.0 | 0.00 | 0.00 | 0.00 | 94 | 1010.3 |
| 20260510020520 | 61 | 139 | 0.0 | 0.0 | 0.00 | 0.00 | 0.00 | 94 | 1010.4 |
| 20260510020016 | 62 | 139 | 0.0 | 0.0 | 0.00 | 0.00 | 0.00 | 93 | 1010.5 |
| 20260510015512 | 62 | 139 | 0.0 | 0.0 | 0.00 | 0.00 | 0.00 | 93 | 1010.5 |
| 20260510015008 | 62 | 139 | 0.0 | 0.0 | 0.00 | 0.00 | 0.00 | 92 | 1010.2 |
| 20260510014505 | 62 | 139 | 0.0 | 0.0 | 0.00 | 0.00 | 0.00 | 92 | 1010.1 |
| 20260510014002 | 62 | 139 | 0.0 | 0.0 | 0.00 | 0.00 | 0.00 | 92 | 1009.9 |
| 20260510013456 | 62 | 139 | 0.0 | 0.0 | 0.00 | 0.00 | 0.00 | 91 | 1009.9 |
| 20260510012952 | 62 | 139 | 0.0 | 0.0 | 0.00 | 0.00 | 0.00 | 91 | 1009.9 |
| 20260510012447 | 63 | 139 | 0.0 | 0.0 | 0.00 | 0.00 | 0.00 | 91 | 1009.8 |
| 20260510011942 | 63 | 139 | 0.0 | 0.0 | 0.00 | 0.00 | 0.00 | 90 | 1009.8 |
| 20260510011437 | 63 | 139 | 0.0 | 0.0 | 0.00 | 0.00 | 0.00 | 89 | 1009.5 |
| 20260510010933 | 64 | 139 | 0.0 | 0.0 | 0.00 | 0.00 | 0.00 | 88 | 1009.7 |
| 20260510010431 | 64 | 139 | 0.0 | 0.0 | 0.00 | 0.00 | 0.00 | 88 | 1009.7 |
| 20260510005928 | 64 | 139 | 0.0 | 0.0 | 0.00 | 0.00 | 0.00 | 88 | 1009.9 |
| 20260510005424 | 64 | 139 | 0.0 | 0.0 | 0.00 | 0.00 | 0.00 | 88 | 1009.7 |
| 20260510004921 | 64 | 139 | 0.0 | 0.0 | 0.00 | 0.00 | 0.00 | 88 | 1009.6 |
| 20260510004419 | 64 | 139 | 0.0 | 0.0 | 0.00 | 0.00 | 0.00 | 86 | 1009.3 |
| 20260510003916 | 65 | 139 | 0.0 | 0.0 | 0.00 | 0.00 | 0.00 | 86 | 1009.5 |
| 20260510003413 | 65 | 139 | 0.0 | 0.0 | 0.00 | 0.00 | 0.00 | 85 | 1009.4 |
| 20260510002912 | 65 | 139 | 0.0 | 0.0 | 0.00 | 0.00 | 0.00 | 84 | 1009.3 |
| 20260510002410 | 66 | 139 | 0.0 | 0.0 | 0.00 | 0.00 | 0.00 | 84 | 1009.7 |
| 20260510001906 | 66 | 139 | 0.0 | 0.0 | 0.00 | 0.00 | 0.00 | 84 | 1009.6 |
| 20260510001404 | 67 | 139 | 0.0 | 0.0 | 0.00 | 0.00 | 0.00 | 81 | 1009.4 |
| 20260510000900 | 67 | 139 | 0.0 | 0.0 | 0.00 | 0.00 | 0.00 | 80 | 1009.5 |
| 20260510000357 | 67 | 139 | 0.0 | 0.0 | 0.00 | 0.00 | 0.00 | 79 | 1009.3 |
| 20260509235853 | 68 | 139 | 0.0 | 0.0 | 0.00 | 0.00 | 0.00 | 78 | 1009.4 |
| 20260509235350 | 68 | 139 | 0.0 | 0.0 | 0.00 | 0.00 | 0.00 | 77 | 1009.3 |
| 20260509234846 | 69 | 139 | 0.0 | 0.0 | 0.00 | 0.00 | 0.00 | 76 | 1009.2 |
| 20260509234343 | 69 | 139 | 0.0 | 0.0 | 0.00 | 0.00 | 0.00 | 75 | 1009.2 |
| 20260509233842 | 69 | 139 | 0.0 | 0.0 | 0.00 | 0.00 | 0.00 | 74 | 1009.0 |
| 20260509233339 | 70 | 140 | 0.0 | 0.0 | 0.00 | 0.00 | 0.00 | 73 | 1008.9 |
| 20260509232834 | 70 | 140 | 0.0 | 0.0 | 0.00 | 0.00 | 0.00 | 72 | 1008.9 |
| 20260509232333 | 70 | 140 | 0.0 | 0.0 | 0.00 | 0.00 | 0.00 | 72 | 1008.8 |
| 20260509231828 | 71 | 127 | 0.0 | 0.0 | 0.00 | 0.00 | 0.00 | 70 | 1008.9 |
| 20260509231325 | 71 | 125 | 0.0 | 0.9 | 0.00 | 0.00 | 0.00 | 71 | 1008.8 |
| 20260509230823 | 71 | 132 | 0.0 | 0.0 | 0.00 | 0.00 | 0.00 | 71 | 1008.7 |
| 20260509230320 | 71 | 132 | 0.0 | 0.0 | 0.00 | 0.00 | 0.00 | 69 | 1008.7 |
| 20260509225815 | 72 | 132 | 0.0 | 0.0 | 0.00 | 0.00 | 0.00 | 69 | 1008.5 |
| 20260509225312 | 72 | 132 | 0.9 | 2.6 | 0.00 | 0.00 | 0.00 | 66 | 1008.3 |
| 20260509224808 | 72 | 130 | 0.9 | 3.5 | 0.00 | 0.00 | 0.00 | 67 | 1008.7 |
| 20260509224304 | 72 | 142 | 1.7 | 1.7 | 0.00 | 0.00 | 0.00 | 67 | 1008.7 |
| 20260509223801 | 72 | 136 | 1.7 | 1.7 | 0.00 | 0.00 | 0.00 | 67 | 1008.7 |
| 20260509223258 | 72 | 138 | 0.9 | 2.6 | 0.00 | 0.00 | 0.00 | 67 | 1008.7 |
| 20260509222755 | 72 | 136 | 0.0 | 0.9 | 0.00 | 0.00 | 0.00 | 67 | 1008.9 |
| 20260509222250 | 73 | 154 | 0.0 | 0.0 | 0.00 | 0.00 | 0.00 | 66 | 1008.8 |
| 20260509221746 | 73 | 155 | 0.9 | 0.9 | 0.00 | 0.00 | 0.00 | 66 | 1009.0 |
| 20260509221243 | 73 | 132 | 0.9 | 0.9 | 0.00 | 0.00 | 0.00 | 65 | 1008.9 |
| 20260509220739 | 73 | 148 | 0.0 | 0.9 | 0.00 | 0.00 | 0.00 | 66 | 1008.7 |
| 20260509220235 | 72 | 142 | 0.0 | 0.0 | 0.00 | 0.00 | 0.00 | 66 | 1008.5 |
| 20260509215731 | 72 | 135 | 0.0 | 0.0 | 0.00 | 0.00 | 0.00 | 66 | 1008.6 |
| 20260509215227 | 73 | 127 | 0.0 | 0.0 | 0.00 | 0.00 | 0.00 | 67 | 1008.6 |
| 20260509214725 | 73 | 126 | 0.0 | 0.0 | 0.00 | 0.00 | 0.00 | 66 | 1008.5 |
| 20260509214222 | 73 | 134 | 0.0 | 0.0 | 0.00 | 0.00 | 0.00 | 66 | 1008.6 |
| 20260509213719 | 73 | 134 | 0.0 | 0.0 | 0.00 | 0.00 | 0.00 | 65 | 1008.5 |
| 20260509213214 | 73 | 165 | 0.0 | 1.7 | 0.00 | 0.00 | 0.00 | 66 | 1008.5 |
| 20260509212712 | 73 | 130 | 0.9 | 1.7 | 0.00 | 0.00 | 0.00 | 65 | 1008.6 |
| 20260509212209 | 73 | 139 | 0.0 | 1.7 | 0.00 | 0.00 | 0.00 | 65 | 1008.5 |
| 20260509211705 | 73 | 137 | 0.0 | 0.0 | 0.00 | 0.00 | 0.00 | 63 | 1008.5 |
| 20260509211201 | 73 | 146 | 0.0 | 0.0 | 0.00 | 0.00 | 0.00 | 66 | 1008.8 |
| 20260509210658 | 74 | 138 | 0.0 | 0.9 | 0.00 | 0.00 | 0.00 | 63 | 1008.4 |
| 20260509210155 | 73 | 123 | 0.9 | 1.7 | 0.00 | 0.00 | 0.00 | 63 | 1008.6 |
| 20260509205650 | 72 | 83 | 0.9 | 1.7 | 0.00 | 0.00 | 0.00 | 65 | 1008.5 |
| 20260509205150 | 73 | 145 | 0.0 | 0.9 | 0.00 | 0.00 | 0.00 | 64 | 1008.4 |
| 20260509204646 | 73 | 134 | 0.0 | 0.9 | 0.00 | 0.00 | 0.00 | 63 | 1008.5 |
| 20260509204142 | 73 | 132 | 0.0 | 0.0 | 0.00 | 0.00 | 0.00 | 63 | 1008.5 |
| 20260509203639 | 72 | 132 | 0.0 | 0.9 | 0.00 | 0.00 | 0.00 | 62 | 1008.5 |
| 20260509203137 | 71 | 134 | 0.0 | 0.0 | 0.00 | 0.00 | 0.00 | 63 | 1008.5 |
| 20260509202637 | 71 | 134 | 0.0 | 0.0 | 0.00 | 0.00 | 0.00 | 65 | 1008.6 |
| 20260509202132 | 71 | 147 | 0.0 | 0.9 | 0.00 | 0.00 | 0.00 | 66 | 1008.6 |
| 20260509201627 | 71 | 155 | 0.0 | 0.0 | 0.00 | 0.00 | 0.00 | 66 | 1008.6 |
| 20260509201126 | 71 | 145 | 0.0 | 0.0 | 0.00 | 0.00 | 0.00 | 65 | 1008.7 |
| 20260509200621 | 71 | 147 | 0.0 | 0.0 | 0.00 | 0.00 | 0.00 | 64 | 1008.7 |
| 20260509200117 | 71 | 121 | 0.0 | 0.9 | 0.00 | 0.00 | 0.00 | 63 | 1009.1 |
| 20260509195613 | 71 | 132 | 0.0 | 0.0 | 0.00 | 0.00 | 0.00 | 64 | 1009.0 |
| 20260509195107 | 71 | 132 | 0.0 | 0.0 | 0.00 | 0.00 | 0.00 | 62 | 1008.8 |
| 20260509194607 | 72 | 134 | 0.9 | 0.9 | 0.00 | 0.00 | 0.00 | 62 | 1009.0 |
| 20260509194105 | 71 | 149 | 0.0 | 1.7 | 0.00 | 0.00 | 0.00 | 62 | 1009.3 |
| 20260509193601 | 71 | 141 | 0.0 | 1.7 | 0.00 | 0.00 | 0.00 | 61 | 1009.1 |
| 20260509193056 | 72 | 141 | 0.9 | 2.6 | 0.00 | 0.00 | 0.00 | 63 | 1009.2 |
| 20260509192553 | 72 | 143 | 0.0 | 0.9 | 0.00 | 0.00 | 0.00 | 63 | 1009.2 |
| 20260509192048 | 72 | 160 | 0.0 | 2.6 | 0.00 | 0.00 | 0.00 | 60 | 1009.4 |
| 20260509191548 | 73 | 156 | 0.0 | 2.6 | 0.00 | 0.00 | 0.00 | 61 | 1009.3 |
| 20260509191045 | 73 | 136 | 0.9 | 2.6 | 0.00 | 0.00 | 0.00 | 59 | 1009.3 |
| 20260509190542 | 73 | 114 | 0.9 | 0.9 | 0.00 | 0.00 | 0.00 | 60 | 1009.3 |